DAL3716 KSAN-KLAX

Flight info

Callsign DAL3716
Flight time 0h 25m
Altitude 10000
Route CWARD2 SLI
Aircraft A320/M-SDE3FGHIRWY/LB1

Departure

Time 2026-05-07 04:52
Airport San Diego International Airport (KSAN)

Arrival

Time 2026-05-07 05:17
Airport Los Angeles International Airport (KLAX)
Time Latitude Longitude Altitude Speed Heading
2026-05-07 04:23 32.73248 -117.20156 21 ft 0 kts 112°
2026-05-07 04:41 32.73256 -117.20179 21 ft 4 kts 105°
2026-05-07 04:41 32.73258 -117.20209 21 ft 4 kts 67°
2026-05-07 04:41 32.73259 -117.20223 22 ft 4 kts 325°
2026-05-07 04:41 32.73257 -117.20220 22 ft 1 kts 303°
2026-05-07 04:43 32.73263 -117.20230 24 ft 5 kts 307°
2026-05-07 04:44 32.73305 -117.20255 21 ft 8 kts 345°
2026-05-07 04:44 32.73358 -117.20271 21 ft 8 kts 345°
2026-05-07 04:44 32.73417 -117.20269 21 ft 9 kts 12°
2026-05-07 04:44 32.73448 -117.20259 21 ft 0 kts 17°
2026-05-07 04:45 32.73457 -117.20255 21 ft 4 kts 17°
2026-05-07 04:45 32.73499 -117.20242 23 ft 9 kts 15°
2026-05-07 04:46 32.73555 -117.20223 23 ft 0 kts 17°
2026-05-07 04:46 32.73561 -117.20217 23 ft 3 kts 41°
2026-05-07 04:46 32.73553 -117.20176 23 ft 8 kts 120°
2026-05-07 04:46 32.73527 -117.20091 22 ft 13 kts 105°
2026-05-07 04:47 32.73503 -117.19992 25 ft 12 kts 107°
2026-05-07 04:47 32.73483 -117.19910 24 ft 9 kts 105°
2026-05-07 04:47 32.73466 -117.19838 24 ft 10 kts 106°
2026-05-07 04:47 32.73441 -117.19740 24 ft 15 kts 107°
2026-05-07 04:48 32.73408 -117.19605 23 ft 19 kts 107°
2026-05-07 04:48 32.73368 -117.19436 23 ft 24 kts 105°
2026-05-07 04:48 32.73317 -117.19228 22 ft 28 kts 106°
2026-05-07 04:48 32.73264 -117.19002 22 ft 29 kts 106°
2026-05-07 04:49 32.73207 -117.18769 34 ft 30 kts 106°
2026-05-07 04:49 32.73147 -117.18524 26 ft 32 kts 105°
2026-05-07 04:49 32.73084 -117.18262 26 ft 34 kts 105°
2026-05-07 04:49 32.73016 -117.17984 22 ft 36 kts 106°
2026-05-07 04:50 32.72962 -117.17760 22 ft 22 kts 107°
2026-05-07 04:50 32.72953 -117.17664 23 ft 4 kts 74°
2026-05-07 04:50 32.72960 -117.17642 25 ft 2 kts 71°
2026-05-07 04:50 32.72962 -117.17634 24 ft 3 kts 70°
2026-05-07 04:51 32.73007 -117.17591 25 ft 10 kts 346°
2026-05-07 04:51 32.73044 -117.17677 23 ft 14 kts 283°
2026-05-07 04:51 32.73109 -117.17941 22 ft 68 kts 286°
2026-05-07 04:51 32.73300 -117.18727 18 ft 128 kts 286°
2026-05-07 04:52 32.73583 -117.19882 302 ft 150 kts 289°
2026-05-07 04:52 32.73957 -117.21047 915 ft 153 kts 302°
2026-05-07 04:52 32.74539 -117.22108 1612 ft 154 kts 306°
2026-05-07 04:52 32.75175 -117.23210 2030 ft 173 kts 306°
2026-05-07 04:53 32.75896 -117.24462 2322 ft 196 kts 305°
2026-05-07 04:53 32.76716 -117.25913 2600 ft 225 kts 304°
2026-05-07 04:53 32.77630 -117.27541 3104 ft 247 kts 304°
2026-05-07 04:53 32.78606 -117.29280 3896 ft 257 kts 304°
2026-05-07 04:54 32.79607 -117.31085 4742 ft 265 kts 304°
2026-05-07 04:54 32.80648 -117.32901 5674 ft 267 kts 307°
2026-05-07 04:54 32.81764 -117.34695 6532 ft 273 kts 309°
2026-05-07 04:54 32.82928 -117.36504 7332 ft 278 kts 310°
2026-05-07 04:55 32.84122 -117.38340 8170 ft 282 kts 311°
2026-05-07 04:55 32.85336 -117.40199 8996 ft 287 kts 311°
2026-05-07 04:55 32.86569 -117.42093 9711 ft 293 kts 312°
2026-05-07 04:55 32.87818 -117.44021 9932 ft 294 kts 311°
2026-05-07 04:56 32.89062 -117.45954 9972 ft 294 kts 311°
2026-05-07 04:56 32.90303 -117.47886 9971 ft 294 kts 311°
2026-05-07 04:56 32.91541 -117.49813 9978 ft 293 kts 312°
2026-05-07 04:56 32.92784 -117.51741 9971 ft 293 kts 312°
2026-05-07 04:57 32.94023 -117.53667 9972 ft 293 kts 311°
2026-05-07 04:57 32.95262 -117.55600 9977 ft 294 kts 311°
2026-05-07 04:57 32.96504 -117.57532 9972 ft 294 kts 312°
2026-05-07 04:57 32.97743 -117.59464 9979 ft 294 kts 311°
2026-05-07 04:58 32.98980 -117.61397 9974 ft 294 kts 311°
2026-05-07 04:58 33.00220 -117.63333 9973 ft 294 kts 311°
2026-05-07 04:58 33.01458 -117.65266 9971 ft 293 kts 311°
2026-05-07 04:58 33.02694 -117.67197 9980 ft 293 kts 311°
2026-05-07 04:59 33.03929 -117.69126 9981 ft 293 kts 311°
2026-05-07 04:59 33.05162 -117.71058 9985 ft 292 kts 311°
2026-05-07 04:59 33.06430 -117.72947 9991 ft 290 kts 318°
2026-05-07 04:59 33.07924 -117.74531 9992 ft 287 kts 323°
2026-05-07 05:00 33.09448 -117.76075 9988 ft 287 kts 323°
2026-05-07 05:00 33.10970 -117.77621 9990 ft 287 kts 323°
2026-05-07 05:00 33.12504 -117.79142 9988 ft 285 kts 329°
2026-05-07 05:00 33.14268 -117.80138 9990 ft 279 kts 345°
2026-05-07 05:01 33.16115 -117.80864 9987 ft 279 kts 345°
2026-05-07 05:01 33.17962 -117.81587 9985 ft 279 kts 345°
2026-05-07 05:01 33.19808 -117.82310 9986 ft 279 kts 345°
2026-05-07 05:01 33.21656 -117.83035 9980 ft 279 kts 345°
2026-05-07 05:02 33.23504 -117.83761 9985 ft 279 kts 345°
2026-05-07 05:02 33.25326 -117.84479 9981 ft 280 kts 345°
2026-05-07 05:02 33.27173 -117.85206 9981 ft 280 kts 345°
2026-05-07 05:02 33.29021 -117.85937 9981 ft 280 kts 345°
2026-05-07 05:03 33.30891 -117.86675 9978 ft 280 kts 345°
2026-05-07 05:03 33.32741 -117.87402 9979 ft 280 kts 345°
2026-05-07 05:03 33.34566 -117.88119 9980 ft 280 kts 345°
2026-05-07 05:03 33.36439 -117.88856 9979 ft 280 kts 345°
2026-05-07 05:04 33.38287 -117.89584 9981 ft 280 kts 345°
2026-05-07 05:04 33.40135 -117.90313 9979 ft 279 kts 345°
2026-05-07 05:04 33.41971 -117.91038 9648 ft 277 kts 345°
2026-05-07 05:04 33.43776 -117.91752 9228 ft 277 kts 345°
2026-05-07 05:05 33.45599 -117.92473 8833 ft 276 kts 345°
2026-05-07 05:05 33.47417 -117.93190 8430 ft 274 kts 344°
2026-05-07 05:05 33.49225 -117.93904 8043 ft 273 kts 344°
2026-05-07 05:05 33.51023 -117.94616 7647 ft 272 kts 343°
2026-05-07 05:06 33.52815 -117.95326 7259 ft 271 kts 343°
2026-05-07 05:06 33.54598 -117.96035 6872 ft 269 kts 343°
2026-05-07 05:06 33.56373 -117.96739 6486 ft 268 kts 343°
2026-05-07 05:06 33.58142 -117.97442 6078 ft 267 kts 342°
2026-05-07 05:07 33.59899 -117.98142 5970 ft 267 kts 342°
2026-05-07 05:07 33.61667 -117.98845 5979 ft 268 kts 342°
2026-05-07 05:07 33.63441 -117.99551 5976 ft 269 kts 342°
2026-05-07 05:07 33.65219 -118.00260 5980 ft 270 kts 342°
2026-05-07 05:08 33.67002 -118.00967 5981 ft 270 kts 342°
2026-05-07 05:08 33.68786 -118.01674 5979 ft 270 kts 342°
2026-05-07 05:08 33.70568 -118.02383 5885 ft 268 kts 342°
2026-05-07 05:08 33.72333 -118.03086 5452 ft 267 kts 342°
2026-05-07 05:09 33.73528 -118.03556 5166 ft 267 kts 342°
2026-05-07 05:09 33.75260 -118.04228 4952 ft 262 kts 342°
2026-05-07 05:09 33.76938 -118.04873 4948 ft 244 kts 342°
2026-05-07 05:09 33.78500 -118.05473 4951 ft 229 kts 342°
2026-05-07 05:10 33.79983 -118.06042 4949 ft 217 kts 342°
2026-05-07 05:10 33.81372 -118.06575 4939 ft 204 kts 342°
2026-05-07 05:10 33.82704 -118.07087 4727 ft 200 kts 342°
2026-05-07 05:10 33.84024 -118.07596 4455 ft 199 kts 342°
2026-05-07 05:11 33.85340 -118.08098 4175 ft 199 kts 342°
2026-05-07 05:11 33.86662 -118.08589 3911 ft 198 kts 342°
2026-05-07 05:11 33.87962 -118.09129 3676 ft 197 kts 329°
2026-05-07 05:11 33.89000 -118.10184 3396 ft 196 kts 313°
2026-05-07 05:12 33.89913 -118.11407 3109 ft 197 kts 310°
2026-05-07 05:12 33.90633 -118.12773 2886 ft 195 kts 295°
2026-05-07 05:12 33.91187 -118.14266 2597 ft 196 kts 292°
2026-05-07 05:12 33.91711 -118.15780 2325 ft 196 kts 292°
2026-05-07 05:13 33.92228 -118.17300 2061 ft 196 kts 292°
2026-05-07 05:13 33.92740 -118.18827 1973 ft 197 kts 292°
2026-05-07 05:13 33.93248 -118.20363 1990 ft 198 kts 291°
2026-05-07 05:13 33.93713 -118.21922 1989 ft 197 kts 289°
2026-05-07 05:14 33.94161 -118.23481 1994 ft 197 kts 289°
2026-05-07 05:14 33.94606 -118.25039 1940 ft 195 kts 289°
2026-05-07 05:14 33.95046 -118.26581 1507 ft 195 kts 289°
2026-05-07 05:14 33.95490 -118.28116 1299 ft 193 kts 289°
2026-05-07 05:15 33.95939 -118.29654 1291 ft 196 kts 288°
2026-05-07 05:15 33.96192 -118.31226 1292 ft 183 kts 268°
2026-05-07 05:15 33.96004 -118.32642 1205 ft 162 kts 258°
2026-05-07 05:15 33.95852 -118.33937 1017 ft 152 kts 264°
2026-05-07 05:16 33.95730 -118.35156 876 ft 142 kts 262°
2026-05-07 05:16 33.95609 -118.36312 830 ft 138 kts 262°
2026-05-07 05:16 33.95489 -118.37454 616 ft 135 kts 260°
2026-05-07 05:16 33.95374 -118.38580 397 ft 135 kts 262°
2026-05-07 05:17 33.95261 -118.39701 206 ft 134 kts 261°
2026-05-07 05:17 33.95150 -118.40796 91 ft 123 kts 262°
2026-05-07 05:17 33.95065 -118.41608 95 ft 73 kts 263°
2026-05-07 05:17 33.95020 -118.42028 96 ft 38 kts 258°
2026-05-07 05:18 33.94900 -118.42240 96 ft 17 kts 221°
2026-05-07 05:18 33.94872 -118.42262 95 ft 0 kts 212°
2026-05-07 05:19 33.94832 -118.42280 98 ft 12 kts 191°
2026-05-07 05:19 33.94740 -118.42277 95 ft 15 kts 173°
2026-05-07 05:19 33.94688 -118.42182 95 ft 17 kts 84°
2026-05-07 05:20 33.94704 -118.42047 95 ft 16 kts 82°
2026-05-07 05:20 33.94714 -118.41926 93 ft 14 kts 83°
2026-05-07 05:20 33.94726 -118.41814 93 ft 13 kts 84°
2026-05-07 05:20 33.94735 -118.41711 93 ft 11 kts 85°
2026-05-07 05:21 33.94744 -118.41623 93 ft 10 kts 82°
2026-05-07 05:21 33.94776 -118.41418 95 ft 17 kts 67°
2026-05-07 05:21 33.94792 -118.41287 95 ft 15 kts 82°
2026-05-07 05:22 33.94805 -118.41170 96 ft 13 kts 83°
2026-05-07 05:22 33.94816 -118.41067 96 ft 11 kts 83°
2026-05-07 05:22 33.94825 -118.40977 95 ft 10 kts 84°
2026-05-07 05:22 33.94818 -118.40897 96 ft 9 kts 126°
2026-05-07 05:23 33.94761 -118.40893 93 ft 9 kts 210°
2026-05-07 05:23 33.94718 -118.40911 95 ft 0 kts 184°
2026-05-07 05:23 33.94710 -118.40911 94 ft 4 kts 180°
2026-05-07 05:24 33.94686 -118.40908 93 ft 5 kts 172°
2026-05-07 05:24 33.94644 -118.40891 92 ft 2 kts 140°
2026-05-07 05:24 33.94636 -118.40859 94 ft 10 kts 99°
2026-05-07 05:24 33.94634 -118.40849 93 ft 0 kts 102°
2026-05-07 05:25 33.94633 -118.40847 93 ft 1 kts 103°
2026-05-07 05:25 33.94633 -118.40841 93 ft 0 kts 101°
2026-05-07 05:25 33.94632 -118.40840 93 ft 0 kts 101°
2026-05-07 05:25 33.94632 -118.40835 93 ft 1 kts 100°
2026-05-07 05:26 33.94631 -118.40833 93 ft 0 kts 99°